TimeCDT,TemperatureF,Dew PointF,Humidity,Sea Level PressureIn,VisibilityMPH,Wind Direction,Wind SpeedMPH,Gust SpeedMPH,PrecipitationIn,Events,Conditions,WindDirDegrees,DateUTC
12:13 AM,33.8,21.2,60,30.23,10.0,West,4.6,-,N/A,,Overcast,270,2012-10-07 05:13:00
12:33 AM,33.8,21.2,60,30.23,10.0,West,3.5,-,N/A,,Mostly Cloudy,280,2012-10-07 05:33:00
12:53 AM,33.8,21.2,60,30.22,10.0,WNW,4.6,-,N/A,,Mostly Cloudy,290,2012-10-07 05:53:00
1:13 AM,32.0,21.2,64,30.22,10.0,West,4.6,-,N/A,,Mostly Cloudy,280,2012-10-07 06:13:00
1:32 AM,32.0,21.2,64,30.22,10.0,West,4.6,-,N/A,,Scattered Clouds,280,2012-10-07 06:32:00
1:53 AM,30.2,21.2,69,30.22,10.0,West,3.5,-,N/A,,Clear,270,2012-10-07 06:53:00
2:13 AM,30.2,21.2,69,30.22,10.0,West,3.5,-,N/A,,Clear,280,2012-10-07 07:13:00
2:33 AM,28.4,21.2,74,30.22,10.0,Calm,Calm,-,N/A,,Clear,0,2012-10-07 07:33:00
2:52 AM,28.4,21.2,74,30.21,10.0,West,3.5,-,N/A,,Clear,270,2012-10-07 07:52:00
3:13 AM,26.6,21.2,80,30.21,10.0,West,3.5,-,N/A,,Clear,260,2012-10-07 08:13:00
3:33 AM,26.6,21.2,80,30.21,10.0,Calm,Calm,-,N/A,,Clear,0,2012-10-07 08:33:00
3:52 AM,26.6,21.2,80,30.21,10.0,West,3.5,-,N/A,,Clear,270,2012-10-07 08:52:00
4:13 AM,26.6,21.2,80,30.21,10.0,West,3.5,-,N/A,,Clear,260,2012-10-07 09:13:00
4:32 AM,26.6,21.2,80,30.20,10.0,West,3.5,-,N/A,,Clear,270,2012-10-07 09:32:00
4:53 AM,24.8,21.2,86,30.20,10.0,Calm,Calm,-,N/A,,Clear,0,2012-10-07 09:53:00
5:13 AM,24.8,21.2,86,30.20,10.0,Calm,Calm,-,N/A,,Clear,0,2012-10-07 10:13:00
5:32 AM,24.8,21.2,86,30.19,10.0,Calm,Calm,-,N/A,,Clear,0,2012-10-07 10:32:00
5:53 AM,24.8,21.2,86,30.19,10.0,Calm,Calm,-,N/A,,Clear,0,2012-10-07 10:53:00
6:13 AM,24.8,21.2,86,30.19,10.0,Calm,Calm,-,N/A,,Clear,0,2012-10-07 11:13:00
6:32 AM,24.8,21.2,86,30.19,10.0,Calm,Calm,-,N/A,,Clear,0,2012-10-07 11:32:00
6:53 AM,23.0,21.2,93,30.19,10.0,Calm,Calm,-,N/A,,Clear,0,2012-10-07 11:53:00
7:13 AM,24.8,21.2,86,30.19,10.0,SW,3.5,-,N/A,,Clear,230,2012-10-07 12:13:00
7:32 AM,24.8,21.2,86,30.19,10.0,Calm,Calm,-,N/A,,Clear,0,2012-10-07 12:32:00
7:53 AM,24.8,21.2,86,30.19,10.0,Calm,Calm,-,N/A,,Clear,0,2012-10-07 12:53:00
8:12 AM,26.6,23.0,86,30.19,10.0,Calm,Calm,-,N/A,,Clear,0,2012-10-07 13:12:00
8:33 AM,28.4,23.0,80,30.19,10.0,Calm,Calm,-,N/A,,Clear,0,2012-10-07 13:33:00
8:53 AM,28.4,23.0,80,30.19,10.0,SSW,3.5,-,N/A,,Clear,210,2012-10-07 13:53:00
9:12 AM,30.2,23.0,75,30.18,10.0,SW,4.6,-,N/A,,Clear,220,2012-10-07 14:12:00
9:33 AM,33.8,23.0,65,30.18,10.0,SSW,5.8,-,N/A,,Clear,210,2012-10-07 14:33:00
9:53 AM,37.4,24.8,60,30.18,10.0,SW,6.9,-,N/A,,Clear,220,2012-10-07 14:53:00
10:12 AM,37.4,21.2,52,30.18,10.0,SW,8.1,16.1,N/A,,Clear,220,2012-10-07 15:12:00
10:33 AM,39.2,23.0,52,30.17,10.0,SW,10.4,17.3,N/A,,Clear,220,2012-10-07 15:33:00
10:53 AM,39.2,21.2,49,30.17,10.0,SW,10.4,18.4,N/A,,Clear,220,2012-10-07 15:53:00
11:12 AM,41.0,21.2,45,30.17,10.0,WSW,10.4,-,N/A,,Clear,240,2012-10-07 16:12:00
11:33 AM,42.8,21.2,42,30.16,10.0,WSW,10.4,17.3,N/A,,Clear,240,2012-10-07 16:33:00
11:53 AM,42.8,21.2,42,30.15,10.0,SW,11.5,18.4,N/A,,Clear,230,2012-10-07 16:53:00
12:12 PM,44.6,21.2,39,30.15,10.0,WSW,9.2,16.1,N/A,,Clear,250,2012-10-07 17:12:00
12:33 PM,44.6,17.6,34,30.14,10.0,WSW,13.8,18.4,N/A,,Clear,250,2012-10-07 17:33:00
12:53 PM,46.4,17.6,32,30.13,10.0,SW,10.4,17.3,N/A,,Clear,220,2012-10-07 17:53:00
1:12 PM,46.4,17.6,32,30.12,10.0,SW,9.2,-,N/A,,Clear,230,2012-10-07 18:12:00
1:33 PM,46.4,17.6,32,30.10,10.0,SW,9.2,17.3,N/A,,Clear,220,2012-10-07 18:33:00
1:53 PM,46.4,17.6,32,30.09,10.0,WSW,11.5,18.4,N/A,,Clear,240,2012-10-07 18:53:00
2:13 PM,48.2,19.4,32,30.08,10.0,SW,11.5,16.1,N/A,,Clear,220,2012-10-07 19:13:00
2:33 PM,48.2,19.4,32,30.06,10.0,WSW,10.4,16.1,N/A,,Clear,240,2012-10-07 19:33:00
2:52 PM,50.0,17.6,28,30.05,10.0,WSW,9.2,18.4,N/A,,Clear,240,2012-10-07 19:52:00
3:13 PM,50.0,17.6,28,30.04,10.0,WSW,11.5,19.6,N/A,,Clear,250,2012-10-07 20:13:00
3:33 PM,51.8,17.6,26,30.03,10.0,SW,9.2,-,N/A,,Clear,230,2012-10-07 20:33:00
3:52 PM,51.8,17.6,26,30.03,10.0,WSW,9.2,-,N/A,,Clear,240,2012-10-07 20:52:00
4:13 PM,51.8,17.6,26,30.02,10.0,SW,13.8,17.3,N/A,,Clear,220,2012-10-07 21:13:00
4:33 PM,51.8,15.8,24,30.01,10.0,WSW,13.8,18.4,N/A,,Clear,250,2012-10-07 21:33:00
4:52 PM,51.8,17.6,26,30.00,10.0,SW,11.5,20.7,N/A,,Clear,220,2012-10-07 21:52:00
5:13 PM,51.8,19.4,28,30.00,10.0,SW,10.4,-,N/A,,Clear,220,2012-10-07 22:13:00
5:33 PM,51.8,19.4,28,29.99,10.0,SW,10.4,16.1,N/A,,Clear,220,2012-10-07 22:33:00
5:52 PM,50.0,19.4,30,29.99,10.0,SW,10.4,16.1,N/A,,Clear,230,2012-10-07 22:52:00
6:13 PM,48.2,19.4,32,29.98,10.0,SW,4.6,-,N/A,,Clear,220,2012-10-07 23:13:00
6:33 PM,48.2,19.4,32,29.98,10.0,SSW,5.8,-,N/A,,Clear,200,2012-10-07 23:33:00
6:52 PM,46.4,19.4,34,29.98,10.0,SSW,4.6,-,N/A,,Clear,200,2012-10-07 23:52:00
7:13 PM,46.4,21.2,37,29.98,10.0,SSW,3.5,-,N/A,,Clear,200,2012-10-08 00:13:00
7:53 PM,44.6,21.2,39,29.98,10.0,South,5.8,-,N/A,,Clear,190,2012-10-08 00:53:00
8:12 PM,44.6,21.2,39,29.97,10.0,South,5.8,-,N/A,,Clear,190,2012-10-08 01:12:00
8:33 PM,44.6,21.2,39,29.97,10.0,South,6.9,-,N/A,,Clear,180,2012-10-08 01:33:00
8:53 PM,42.8,21.2,42,29.97,10.0,South,6.9,-,N/A,,Clear,180,2012-10-08 01:53:00
9:12 PM,42.8,21.2,42,29.97,10.0,South,6.9,-,N/A,,Clear,180,2012-10-08 02:12:00
9:33 PM,42.8,21.2,42,29.96,10.0,South,6.9,-,N/A,,Clear,190,2012-10-08 02:33:00
9:53 PM,42.8,21.2,42,29.96,10.0,South,5.8,-,N/A,,Clear,190,2012-10-08 02:53:00
10:12 PM,42.8,21.2,42,29.96,10.0,South,6.9,-,N/A,,Clear,190,2012-10-08 03:12:00
10:33 PM,42.8,21.2,42,29.95,10.0,South,8.1,-,N/A,,Clear,190,2012-10-08 03:33:00
10:52 PM,42.8,23.0,46,29.95,10.0,South,9.2,-,N/A,,Clear,190,2012-10-08 03:52:00
11:13 PM,42.8,23.0,46,29.95,10.0,South,8.1,-,N/A,,Clear,190,2012-10-08 04:13:00
11:33 PM,42.8,24.8,49,29.94,10.0,SSW,9.2,-,N/A,,Clear,200,2012-10-08 04:33:00
11:52 PM,42.8,24.8,49,29.94,10.0,SSW,9.2,-,N/A,,Clear,200,2012-10-08 04:52:00